Dewpoint
67 66 67 66 66 65 64 66 66 66 64 62 59 58 56 55 53 51 50 49 48 47
67 66 66 67 67 66 66 65 62 62 60 58 56 54 53 52 50 49 49 48 47 44
67 67 66 66 66 65 64 59 59 59 56 54 52 51 50 48 48 46 45 44 44 42
67 67 66 65 64 62 59 58 57 55 54 52 50 48 47 46 45 44 43 43 41 41
67 66 64 63 60 57 56 56 55 53 51 49 46 46 45 44 43 41 41 40 40 39
64 63 62 58 54 54 53 53 52 50 48 46 45 44 44 42 42 41 40 39 39 37
58 59 55 55 53 52 51 50 49 48 46 45 43 44 42 41 39 40 39 39 38 37
56 55 54 52 52 50 49 48 47 47 45 44 43 41 40 40 39 38 37 38 35 38
53 53 51 50 49 48 48 47 46 46 44 43 39 38 37 38 38 36 35 35 35 36
51 49 48 48 48 47 46 46 46 44 43 40 38 36 36 35 37 36 36 35 36 34
49 44 41 46 43 41 44 45 45 43 41 39 37 35 34 34 36 36 36 37 35 35
48 45 40 39 39 36 37 37 37 40 38 36 36 34 34 34 36 34 33 35 37 36
48 46 42 38 37 37 39 36 38 36 35 35 34 34 33 34 35 34 35 36 35 33
47 44 42 39 38 38 37 37 37 35 35 36 35 34 34 34 35 36 36 35 36 37
Lifted_Index
-5 -5 -5 -5 -5 -6 -5 -5 -5 -5 -6 -5 -5 -5 -5 -4 -4 -3 -3 -2 -2 -1
-5 -5 -5 -5 -6 -6 -6 -5 -5 -6 -5 -5 -5 -5 -4 -4 -3 -3 -2 -2 -1 1
-5 -5 -5 -5 -5 -6 -6 -6 -6 -6 -5 -5 -5 -4 -4 -3 -3 -2 -2 -0 2 5
-5 -5 -5 -5 -5 -5 -6 -6 -6 -6 -5 -5 -5 -4 -3 -3 -2 -1 -0 2 6 9
-4 -4 -4 -5 -5 -5 -5 -6 -6 -6 -5 -5 -4 -4 -3 -2 -1 0 2 5 9 10
-3 -3 -4 -4 -5 -5 -5 -5 -5 -5 -5 -5 -4 -3 -2 -1 0 2 5 9 11 11
-2 -3 -3 -4 -4 -5 -5 -5 -5 -5 -5 -4 -3 -2 -1 0 2 5 9 12 12 11
-2 -3 -3 -3 -3 -4 -5 -5 -5 -4 -4 -3 -2 -1 1 2 4 8 12 12 11 11
-2 -2 -3 -3 -3 -4 -5 -5 -5 -4 -3 -1 -1 0 2 5 8 11 12 11 10 11
-2 -3 -3 -3 -4 -4 -5 -5 -4 -3 -2 -0 0 1 4 8 10 12 11 10 10 11
-2 -3 -4 -4 -4 -4 -5 -4 -4 -2 -1 -0 1 2 6 10 12 11 10 10 11 11
-1 -2 -3 -4 -4 -4 -4 -4 -3 -2 -1 -0 1 4 8 11 12 11 10 11 12 12
-0 -1 -2 -3 -4 -4 -4 -3 -2 -1 -0 1 3 7 10 12 11 10 10 11 12 12
1 0 -1 -3 -3 -4 -3 -3 -2 -1 -0 1 5 9 11 12 11 11 11 11 11 12